YAOGAN-30 04B (43082 NORAD) Tracking and Keplerian Element Data

This shows tracking and keplerian element data for the satellite.

Feedback or suggestion? Click here.




ElementValue
Catalog43082
NameYAOGAN-30 04B
Epoch Orbit38791
Epoch Day35.14453278
Epoch Year2025
RAAN297.2476
Inclination34.9953
Eccentricity0.0005972
Argument of Perigee322.3825
Mean Anonmoly37.6464
Mean Motion14.98735759
Decay Rate6.036E-05
L11 43082U 17085B 25035.14453278 .00006036 00000+0 49354-3 0 9999
L22 43082 34.9953 297.2476 0005972 322.3825 37.6464 14.98735759387913



Live tracking and technical data element details for YAOGAN-30 04B (NORAD 43082). YAOGAN-30 04B can be tracked NOW for your location showing map with azimuth and elevation plus other details from your city location.







IsCatalogInMostPopularTable: catalog: 43082, numindb: 536
Update: records affected: 1



GetName: 43082 YAOGAN-30 04B

Hit Count: updated at: Fri, 16 May 2025 11:33:42 GMT